Date,TemperatureHighF,TemperatureAvgF,TemperatureLowF,DewpointHighF,DewpointAvgF,DewpointLowF,HumidityHigh,HumidityAvg,HumidityLow,PressureMaxIn,PressureMinIn,WindSpeedMaxMPH,WindSpeedAvgMPH,GustSpeedMaxMPH,PrecipitationSumIn
2013-4-1,43.1,35.6,26.5,38.6,28.4,12.0,96,77,38,29.78,29.52,28,3,28,0.11
2013-4-2,28.6,25.1,21.6,16.9,10.8,6.0,69,54,44,29.91,29.77,27,7,29,0.00
2013-4-3,35.4,28.4,22.3,19.4,10.8,4.4,66,49,29,30.22,29.90,32,9,32,0.00
2013-4-4,47.6,37.1,25.7,20.5,13.8,4.4,56,39,24,30.28,29.92,23,4,23,0.00
2013-4-5,45.2,38.4,27.8,30.8,21.1,15.1,86,51,34,29.96,29.78,17,5,24,0.00
2013-4-6,36.4,27.3,19.9,15.4,7.4,2.5,66,44,24,30.34,29.96,31,5,31,0.00
2013-4-7,53.7,41.4,28.1,36.4,21.7,9.0,61,46,32,30.31,29.86,29,3,29,0.00
2013-4-8,53.2,44.1,37.0,37.6,31.7,27.5,80,63,41,30.15,29.89,19,2,19,0.00
2013-4-9,47.7,42.9,39.7,45.4,38.7,30.6,97,85,64,30.05,29.84,17,2,17,0.22
2013-4-10,45.7,41.4,38.7,43.0,39.8,37.7,97,94,84,30.03,29.93,7,0,7,0.21
2013-4-11,38.8,34.6,30.5,38.0,25.1,17.4,97,70,47,30.23,29.93,12,1,12,0.01
2013-4-12,31.4,29.8,27.9,29.6,25.8,17.9,94,86,58,30.23,29.88,20,2,20,0.00
2013-4-13,46.1,37.1,30.9,36.6,33.1,29.2,100,86,62,29.92,29.81,8,1,10,0.61
2013-4-14,41.7,36.9,32.1,34.8,31.9,28.0,95,82,64,30.25,29.89,19,1,19,0.11
2013-4-15,57.3,42.9,28.1,36.0,30.8,26.0,93,66,39,30.38,30.24,24,1,24,0.00
2013-4-16,57.3,51.3,43.2,52.2,42.9,32.6,95,74,53,30.27,29.93,27,4,27,0.16
2013-4-17,51.4,44.5,37.4,41.8,31.0,25.6,79,60,38,30.38,30.07,20,3,20,0.00
2013-4-18,58.5,45.1,32.7,42.4,32.1,25.4,84,62,44,30.40,29.96,31,3,31,0.01
2013-4-19,73.0,62.3,47.6,59.4,52.5,39.9,95,72,48,29.97,29.46,27,5,27,0.47
2013-4-20,47.2,40.6,31.2,45.3,28.7,17.0,94,64,43,30.27,29.60,31,6,31,0.02
2013-4-21,43.6,33.7,26.5,21.0,15.3,9.9,71,48,27,30.73,30.27,18,3,21,0.00
2013-4-22,53.7,39.5,26.4,25.0,18.0,13.8,71,44,24,30.78,30.58,19,2,19,0.00
2013-4-23,44.7,36.8,29.6,35.2,28.7,24.6,84,73,59,30.60,30.32,18,1,18,0.00
2013-4-24,74.0,61.3,41.0,47.7,41.0,28.2,91,52,20,30.08,29.64,20,2,20,0.00
2013-4-25,63.6,45.6,36.9,51.7,30.3,21.9,85,57,33,30.31,29.63,27,4,27,0.03
2013-4-26,50.7,41.9,32.6,37.3,30.0,23.8,84,63,41,30.48,30.31,12,1,12,0.00
2013-4-27,59.1,46.2,32.5,37.1,29.5,21.7,94,58,24,30.47,30.32,10,0,10,0.00
2013-4-28,71.1,56.0,37.1,36.2,31.3,25.9,68,41,24,30.34,30.14,18,1,18,0.00
2013-4-29,64.0,55.6,45.5,44.2,39.2,35.9,71,55,37,30.20,30.12,11,1,11,0.00
2013-4-30,69.3,58.8,50.0,47.7,43.7,35.2,74,58,41,30.30,30.20,11,0,11,0.00